Weather History for Jerez de la Frontera, Spain

Change the Weather History Date:

Sunday, November 11, 2012

  Actual Average Record
Temperature  
Mean Temperature 56 °F -  
Max Temperature 62 °F 63 °F 79 °F (2013)
Min Temperature 50 °F 46 °F 33 °F (2001)
Degree Days  
Heating Degree Days 9    
Growing Degree Days 6 (Base 50)    
Moisture  
Dew Point 45 °F    
Average Humidity 69    
Maximum Humidity 94    
Minimum Humidity 48    
Precipitation  
Precipitation 0.00 in 0.14 in - ()
Sea Level Pressure  
Sea Level Pressure 29.89 in    
Wind  
Wind Speed 12 mph ()    
Max Wind Speed 18 mph    
Max Gust Speed -    
Visibility 7.3 miles    
Events      
Averages and records for this station are not official NWS values.
T = Trace of Precipitation, MM = Missing Value Source: Averaged Metar Reports

Daily Weather History Graph

Daily Weather History Graph

Search for Another Location

Airport:

Trip Planner

Search our weather history database for the weather conditions in past years. The results will help you decide how hot, cold, wet, or windy it might be!

Date:

Astronomy

Nov. 11, 2012 Rise Set
Actual Time 7:58 AM CET 6:17 PM CET
Civil Twilight 7:31 AM CET 6:45 PM CET
Nautical Twilight 6:59 AM CET 7:16 PM CET
Astronomical Twilight 6:29 AM CET 7:46 PM CET
Moon 4:59 AM CET (11/11) 4:29 PM CET (11/11)
Length of Visible Light 11h 14m
Length of Day
10h 19m
Waning Crescent, 9% of the Moon is Illuminated
Nov 11
Waning Crescent
Nov 13
New
Nov 20
First Quarter
Nov 28
Full
Dec 6
Last Quarter

Hourly Weather History & Observations

Time (CET) Temp. Dew Point Humidity Pressure Visibility Wind Dir Wind Speed Gust Speed Precip Events Conditions
1:00 AM 60 °F 58 °F 89% 29.93 in - West 3.5 mph - -  
5:00 AM 55.4 °F 51.8 °F 88% 29.86 in 6.2 mi NW 13.8 mph - N/A   Partly Cloudy
5:30 AM 55.4 °F 51.8 °F 88% 29.86 in 6.2 mi NW 12.7 mph - N/A   Partly Cloudy
6:00 AM 53.6 °F 51.8 °F 94% 29.86 in - NW 10.4 mph - N/A   Clear
6:30 AM 53.6 °F 50.0 °F 88% 29.86 in - NW 11.5 mph - N/A   Clear
7:00 AM 52 °F 51 °F 93% 29.87 in 16 mi NW 11.5 mph - -   Scattered Clouds
7:00 AM 51.8 °F 50.0 °F 94% 29.86 in 6.2 mi NW 11.5 mph - N/A   Partly Cloudy
8:00 AM 53.6 °F 48.2 °F 82% 29.86 in 6.2 mi WNW 15.0 mph - N/A   Scattered Clouds
8:30 AM 51.8 °F 48.2 °F 88% 29.86 in 6.2 mi WNW 12.7 mph - N/A   Scattered Clouds
9:00 AM 53.6 °F 48.2 °F 82% 29.86 in 6.2 mi WNW 11.5 mph - N/A   Scattered Clouds
9:30 AM 53.6 °F 48.2 °F 82% 29.89 in 6.2 mi NW 15.0 mph - N/A   Scattered Clouds
10:00 AM 53.6 °F 46.4 °F 77% 29.89 in 6.2 mi NW 13.8 mph - N/A   Partly Cloudy
10:30 AM 55.4 °F 48.2 °F 77% 29.89 in 6.2 mi NW 15.0 mph - N/A   Partly Cloudy
11:00 AM 57.2 °F 46.4 °F 67% 29.89 in 6.2 mi NNW 16.1 mph - N/A   Partly Cloudy
11:30 AM 57.2 °F 44.6 °F 63% 29.89 in 6.2 mi NNW 18.4 mph - N/A   Partly Cloudy
12:00 PM 59.0 °F 46.4 °F 63% 29.89 in 6.2 mi NNW 18.4 mph - N/A   Scattered Clouds
12:30 PM 59.0 °F 44.6 °F 59% 29.89 in 6.2 mi NNW 16.1 mph - N/A   Scattered Clouds
1:00 PM 59 °F 45 °F 50% 29.89 in 19 mi North 16.1 mph - -   Mostly Cloudy
1:00 PM 57.2 °F 42.8 °F 59% 29.89 in 6.2 mi North 16.1 mph - N/A   Scattered Clouds
1:30 PM 60.8 °F 41.0 °F 48% 29.86 in 6.2 mi NNW 17.3 mph - N/A   Scattered Clouds
2:00 PM 59.0 °F 41.0 °F 51% 29.86 in 6.2 mi NNW 15.0 mph - N/A   Scattered Clouds
2:30 PM 59.0 °F 42.8 °F 55% 29.86 in 6.2 mi NNW 18.4 mph - N/A   Scattered Clouds
3:00 PM 60.8 °F 42.8 °F 52% 29.86 in 6.2 mi North 17.3 mph - N/A   Scattered Clouds
3:30 PM 60.8 °F 42.8 °F 52% 29.86 in 6.2 mi North 16.1 mph - N/A   Scattered Clouds
4:00 PM 60.8 °F 41.0 °F 48% 29.86 in 6.2 mi North 18.4 mph - N/A   Scattered Clouds
4:30 PM 60.8 °F 41.0 °F 48% 29.86 in 6.2 mi North 16.1 mph - N/A   Scattered Clouds
5:00 PM 59.0 °F 41.0 °F 51% 29.86 in 6.2 mi North 16.1 mph - N/A   Partly Cloudy
5:30 PM 59.0 °F 42.8 °F 55% 29.89 in 6.2 mi NNW 16.1 mph - N/A   Partly Cloudy
6:00 PM 57.2 °F 42.8 °F 59% 29.89 in 6.2 mi NNW 13.8 mph - N/A   Partly Cloudy
6:30 PM 55.4 °F 42.8 °F 63% 29.89 in 6.2 mi NNW 11.5 mph - N/A   Partly Cloudy
7:00 PM 54 °F 45 °F 63% 29.92 in 16 mi NW 10.4 mph - -   Scattered Clouds
7:00 PM 53.6 °F 42.8 °F 67% 29.92 in 6.2 mi NW 9.2 mph - N/A   Partly Cloudy
7:30 PM 53.6 °F 44.6 °F 72% 29.92 in 6.2 mi NNW 9.2 mph - N/A   Partly Cloudy
8:30 PM 51.8 °F 42.8 °F 71% 29.95 in - NNW 11.5 mph - N/A   Clear
9:00 PM 51.8 °F 42.8 °F 71% 29.95 in - NNW 12.7 mph - N/A   Clear
9:30 PM 51.8 °F 42.8 °F 71% 29.95 in - NNW 13.8 mph - N/A   Clear
10:00 PM 51.8 °F 41.0 °F 67% 29.98 in - NNW 13.8 mph - N/A   Clear
10:30 PM 50.0 °F 41.0 °F 71% 29.98 in - NW 11.5 mph - N/A   Clear
11:00 PM 50.0 °F 41.0 °F 71% 29.98 in - NW 10.4 mph - N/A   Clear